CST,Max TemperatureF,Mean TemperatureF,Min TemperatureF,Max Dew PointF,MeanDew PointF,Min DewpointF,Max Humidity, Mean Humidity, Min Humidity, Max Sea Level PressureIn, Mean Sea Level PressureIn, Min Sea Level PressureIn, Max VisibilityMiles, Mean VisibilityMiles, Min VisibilityMiles, Max Wind SpeedMPH, Mean Wind SpeedMPH, Max Gust SpeedMPH,PrecipitationIn, CloudCover, Events, WindDirDegrees
2012-1-1,39,32,25,22,11,0,63,42,20,30.62,30.42,30.11,10,10,10,38,20,48,0.00,0,,312
2012-1-2,32,23,14,8,4,0,67,48,28,30.69,30.61,30.49,10,10,10,21,9,25,0.00,0,,303
2012-1-3,53,35,17,25,17,4,59,46,32,30.41,30.11,29.91,10,10,10,28,12,37,0.00,0,,228
2012-1-4,60,43,26,25,23,21,81,53,24,30.28,30.15,30.09,10,10,10,22,11,29,0.00,0,,270
2012-1-5,70,48,25,28,24,20,75,48,20,30.07,29.87,29.70,10,10,10,15,4,18,0.00,0,,246
2012-1-6,51,39,27,25,21,17,64,47,29,30.09,29.95,29.71,10,10,10,23,11,28,0.00,0,,305
2012-1-7,43,31,19,21,18,14,77,58,38,30.29,30.21,30.11,10,10,10,10,3,14,0.00,2,,269
2012-1-8,45,35,24,29,24,21,81,65,49,30.35,30.29,30.23,10,10,10,18,8,22,0.00,4,,220
2012-1-9,54,39,23,27,23,19,85,60,35,30.22,30.13,30.06,10,10,10,16,6,21,0.00,0,,250
2012-1-10,62,43,23,30,26,19,88,59,29,30.03,29.86,29.64,10,10,10,15,5,20,0.00,0,,222
2012-1-11,39,28,16,31,18,7,78,64,50,30.08,29.90,29.61,10,8,1,41,27,52,T,7,Snow,329
2012-1-12,18,13,8,7,3,-2,73,65,56,30.12,30.03,29.95,10,9,3,33,21,44,T,6,Snow,324
2012-1-13,34,19,4,15,5,-5,76,54,31,30.13,30.04,29.89,10,10,10,14,6,17,0.00,3,,274
2012-1-14,45,34,22,27,18,11,78,52,25,30.14,30.04,29.90,10,10,10,22,12,28,0.00,4,,300
2012-1-15,58,43,28,23,19,13,58,41,23,30.00,29.78,29.65,10,10,10,22,15,29,0.00,0,,191
2012-1-16,37,26,14,24,14,7,81,66,50,30.06,29.87,29.75,10,10,10,29,19,35,0.00,2,,341
2012-1-17,19,11,3,9,5,-1,86,71,56,30.38,30.23,30.00,10,8,2,29,13,35,T,5,Snow,322
2012-1-18,46,26,5,14,6,-6,73,48,22,30.21,29.97,29.79,10,10,10,29,17,33,0.00,2,,282
2012-1-19,12,6,0,-3,-8,-11,66,56,45,30.26,30.15,30.05,10,10,5,22,10,26,T,2,Snow,52
2012-1-20,21,14,7,5,1,-4,80,65,49,30.29,30.09,29.95,10,10,7,23,11,26,0.01,5,Snow,27
2012-1-21,28,19,9,16,8,1,77,66,55,30.26,29.96,29.58,10,10,10,31,15,38,0.00,4,,144
2012-1-22,39,30,20,28,23,16,92,74,56,29.64,29.51,29.35,10,4,0,22,11,28,0.16,7,Fog-Snow,327
2012-1-23,32,18,4,27,17,4,92,80,68,30.10,29.89,29.61,10,9,2,31,13,38,T,5,,321
2012-1-24,32,17,1,27,9,-2,95,84,72,30.26,30.15,30.02,10,6,0,13,3,16,0.01,4,Fog-Rain,122
2012-1-25,36,27,17,31,23,18,92,85,78,30.23,30.10,29.91,10,3,0,16,4,20,0.00,5,Fog,241
2012-1-26,45,33,20,29,24,18,88,64,40,29.96,29.94,29.91,10,10,10,30,10,35,T,1,,297
2012-1-27,43,34,25,28,22,14,92,68,43,30.23,30.01,29.84,10,10,10,32,12,40,T,5,,299
2012-1-28,44,33,22,16,11,7,74,48,22,30.23,30.18,30.14,10,10,10,26,14,35,0.00,1,,274
2012-1-29,42,30,17,18,14,10,74,54,33,30.25,30.12,29.86,10,10,10,17,7,22,0.00,5,,190
2012-1-30,67,49,30,24,22,19,63,41,18,29.81,29.73,29.65,10,10,10,18,10,24,0.00,0,,228
2012-1-31,58,42,26,32,24,19,69,50,31,30.07,29.87,29.70,10,10,10,23,10,28,0.00,0,,286